Le nostre stazioni meteo in Italia

Pubblicità
Il mio iltempo24.it
Catanzaro, Italia (16365): Temperatura & dewpoint: 19.06.2019 20:00:00 - 25.06.2019 20:00:00 (CEST)Catanzaro, Italia (16365): velocità del vento: 19.06.2019 20:00:00 - 25.06.2019 20:00:00 (CEST)Catanzaro, Italia (16365): direzione del vento: 19.06.2019 20:00:00 - 25.06.2019 20:00:00 (CEST)Catanzaro, Italia (16365): reduced air pressure: 19.06.2019 20:00:00 - 25.06.2019 20:00:00 (CEST)
Data & Tempo tt [°C] td [°C] ff [km/h] ff [kn] dd ppp [hPa]
25.06.2019 20:00:00 - - - - - -
25.06.2019 19:00:00 24,6 16,8 13 7 O 1017,3
25.06.2019 18:00:00 24,8 16,2 13 7 ONO 1017,0
25.06.2019 17:00:00 25,6 15,5 15 8 ONO 1017,1
25.06.2019 16:00:00 26,1 16,0 11 6 O 1017,0
25.06.2019 15:00:00 26,7 15,7 16 9 ONO 1016,7
25.06.2019 14:00:00 25,4 16,2 16 9 O 1016,6
25.06.2019 13:00:00 26,5 17,2 21 11 SSE 1016,4
25.06.2019 12:00:00 26,3 17,6 15 8 O 1016,2
25.06.2019 11:00:00 25,5 17,1 15 8 O 1016,4
25.06.2019 10:00:00 24,1 17,0 11 6 ONO 1016,3
25.06.2019 09:00:00 23,2 16,4 9 5 O 1016,3
25.06.2019 08:00:00 22,0 12,2 16 9 ONO 1016,3
25.06.2019 07:00:00 21,4 11,4 9 5 ONO 1016,2
25.06.2019 06:00:00 20,4 12,1 9 5 ONO 1016,0
25.06.2019 05:00:00 21,0 13,1 21 11 ONO 1015,9
25.06.2019 04:00:00 20,9 16,0 13 7 NO 1015,9
25.06.2019 03:00:00 21,1 16,8 21 11 NO 1016,2
25.06.2019 02:00:00 21,4 17,1 24 13 NO 1016,5
25.06.2019 01:00:00 21,7 17,0 9 5 ONO 1016,6
25.06.2019 00:00:00 21,8 17,7 15 8 ONO 1016,7
24.06.2019 23:00:00 22,2 17,5 13 7 ONO 1017,0
24.06.2019 22:00:00 22,6 17,4 9 5 O 1016,7
24.06.2019 21:00:00 22,9 16,6 11 6 O 1016,1
24.06.2019 20:00:00 24,0 15,1 11 6 O 1015,5
24.06.2019 19:00:00 26,0 12,4 13 7 O 1015,0
24.06.2019 18:00:00 25,8 16,6 5 3 S 1014,7
24.06.2019 17:00:00 25,0 16,6 8 4 SSE 1015,0
24.06.2019 16:00:00 - - - - - -
24.06.2019 15:00:00 25,6 16,4 11 6 SSE 1015,1
24.06.2019 14:00:00 27,4 13,3 8 4 O 1014,8
24.06.2019 13:00:00 26,7 15,7 9 5 N 1015,2
24.06.2019 12:00:00 26,6 16,5 9 5 O 1014,9
24.06.2019 11:00:00 25,1 16,2 13 7 N 1015,3
24.06.2019 10:00:00 24,0 16,2 11 6 ONO 1015,7
24.06.2019 09:00:00 22,7 16,4 11 6 ONO 1015,9
24.06.2019 08:00:00 21,5 15,3 13 7 ONO 1015,6
24.06.2019 07:00:00 20,9 14,7 13 7 ONO 1015,5
24.06.2019 06:00:00 20,3 12,0 15 8 ONO 1015,5
24.06.2019 05:00:00 20,8 11,9 8 4 NNO 1015,2
24.06.2019 04:00:00 21,7 11,7 8 4 ONO 1015,1
24.06.2019 03:00:00 22,6 12,5 18 10 NO 1015,1
24.06.2019 02:00:00 22,7 13,4 9 5 NO 1014,7
24.06.2019 01:00:00 22,9 12,8 26 14 ONO 1014,5
24.06.2019 00:00:00 23,0 12,3 26 14 ONO 1014,5
23.06.2019 23:00:00 23,4 12,3 18 10 ONO 1014,4
23.06.2019 22:00:00 23,5 13,6 18 10 ONO 1014,0
23.06.2019 21:00:00 23,4 16,1 15 8 ONO 1013,8
23.06.2019 20:00:00 25,7 12,2 16 9 ONO 1013,5
23.06.2019 19:00:00 27,0 11,5 16 9 ONO 1013,3
23.06.2019 18:00:00 29,0 12,8 22 12 O 1013,0
23.06.2019 17:00:00 29,9 12,4 21 11 O 1013,0
23.06.2019 16:00:00 31,0 11,4 22 12 O 1013,4
23.06.2019 15:00:00 30,7 11,2 18 10 ONO 1013,2
23.06.2019 14:00:00 30,2 12,6 15 8 O 1013,5
23.06.2019 13:00:00 30,8 11,8 9 5 O 1013,4
23.06.2019 12:00:00 30,4 11,9 16 9 ONO 1013,4
23.06.2019 11:00:00 24,9 17,6 15 8 ONO 1014,1
23.06.2019 10:00:00 23,8 16,0 18 10 ONO 1014,1
23.06.2019 09:00:00 25,0 12,5 13 7 O 1013,8
23.06.2019 08:00:00 25,3 12,8 28 15 ONO 1013,2
23.06.2019 07:00:00 24,5 11,4 24 13 ONO 1013,1
23.06.2019 06:00:00 26,6 9,9 18 10 ONO 1012,8
23.06.2019 05:00:00 28,8 9,5 15 8 NO 1012,5
23.06.2019 04:00:00 28,3 10,0 8 4 ONO 1012,9
23.06.2019 03:00:00 26,6 9,9 2 1 S 1013,4
23.06.2019 02:00:00 26,0 10,6 5 3 N 1013,8
23.06.2019 01:00:00 - - - - - -
23.06.2019 00:00:00 - - - - - -
22.06.2019 23:00:00 25,4 13,2 2 1 N 1014,7
22.06.2019 22:00:00 - - - - - -
22.06.2019 21:00:00 - - - - - -
22.06.2019 20:00:00 25,6 14,6 4 2 ENE 1015,0
22.06.2019 19:00:00 - - - - - -
22.06.2019 18:00:00 26,9 13,9 0 0 N 1015,1
22.06.2019 17:00:00 26,6 14,6 8 4 SE 1015,6
22.06.2019 16:00:00 27,5 14,4 16 9 SSE 1016,0
22.06.2019 15:00:00 28,3 15,2 11 6 ESE 1016,6
22.06.2019 14:00:00 30,7 9,6 11 6 N 1016,1
22.06.2019 13:00:00 30,8 11,8 8 4 E 1016,0
22.06.2019 12:00:00 30,4 8,2 13 7 ONO 1016,2
22.06.2019 11:00:00 28,7 13,3 4 2 ONO 1016,4
22.06.2019 10:00:00 28,4 13,1 5 3 SSE 1015,6
22.06.2019 09:00:00 28,3 13,4 4 2 ESE 1015,5
22.06.2019 08:00:00 27,7 10,8 0 0 N 1015,5
22.06.2019 07:00:00 26,8 9,6 2 1 N 1015,3
22.06.2019 06:00:00 26,0 9,3 0 0 N 1015,2
22.06.2019 05:00:00 26,3 10,0 0 0 N 1014,9
22.06.2019 04:00:00 26,2 9,9 8 4 N 1014,9
22.06.2019 03:00:00 25,8 10,4 5 3 ONO 1015,0
22.06.2019 02:00:00 24,7 11,2 4 2 O 1015,5
22.06.2019 01:00:00 24,4 12,0 0 0 N 1015,8
22.06.2019 00:00:00 24,2 14,5 2 1 NE 1015,8
21.06.2019 23:00:00 24,1 15,2 0 0 N 1016,1
21.06.2019 22:00:00 23,7 15,4 0 0 N 1016,1
21.06.2019 21:00:00 24,7 15,3 2 1 ESE 1015,1
21.06.2019 20:00:00 26,0 15,0 8 4 E 1015,1
21.06.2019 19:00:00 26,1 15,1 5 3 SSO 1015,1
21.06.2019 18:00:00 26,0 14,7 8 4 S 1015,1
21.06.2019 17:00:00 26,7 13,7 9 5 SSE 1015,3
21.06.2019 16:00:00 - - - - - -
21.06.2019 15:00:00 26,7 14,1 11 6 SE 1015,8
21.06.2019 14:00:00 27,3 13,2 13 7 ESE 1015,8
21.06.2019 13:00:00 27,4 14,7 15 8 S 1015,6
21.06.2019 12:00:00 26,9 14,2 11 6 S 1015,3
21.06.2019 11:00:00 25,9 15,5 9 5 O 1015,6
21.06.2019 10:00:00 24,2 14,2 15 8 ONO 1016,0
21.06.2019 09:00:00 25,2 13,7 5 3 O 1015,9
21.06.2019 08:00:00 25,3 13,4 0 0 N 1014,9
21.06.2019 07:00:00 23,6 11,3 5 3 O 1015,1
21.06.2019 06:00:00 22,7 12,0 4 2 ONO 1014,6
21.06.2019 05:00:00 21,8 12,0 5 3 ONO 1014,5
21.06.2019 04:00:00 20,4 9,0 16 9 O 1014,6
21.06.2019 03:00:00 20,9 9,1 22 12 O 1014,4
21.06.2019 02:00:00 21,0 8,9 16 9 O 1014,8
21.06.2019 01:00:00 21,2 11,8 16 9 ONO 1014,7
21.06.2019 00:00:00 20,6 10,6 22 12 ONO 1014,9
20.06.2019 23:00:00 20,7 13,1 24 13 O 1014,7
20.06.2019 22:00:00 21,0 14,6 13 7 ONO 1014,2
20.06.2019 21:00:00 21,4 15,2 13 7 ONO 1013,6
20.06.2019 20:00:00 22,8 15,6 11 6 O 1013,3
20.06.2019 19:00:00 23,6 15,3 9 5 O 1013,3
20.06.2019 18:00:00 24,7 15,5 22 12 O 1012,8
20.06.2019 17:00:00 24,9 15,7 15 8 ONO 1013,1
20.06.2019 16:00:00 - - - - - -
20.06.2019 15:00:00 25,0 16,1 13 7 O 1013,8
20.06.2019 14:00:00 25,2 16,0 24 13 ONO 1014,1
20.06.2019 13:00:00 25,1 15,9 13 7 O 1014,1
20.06.2019 12:00:00 24,6 16,0 16 9 O 1014,1
20.06.2019 11:00:00 24,0 15,9 21 11 O 1014,1
20.06.2019 10:00:00 22,5 16,0 16 9 O 1014,2
20.06.2019 09:00:00 21,8 14,8 18 10 O 1014,0
20.06.2019 08:00:00 20,3 13,2 18 10 ONO 1014,1
20.06.2019 07:00:00 19,6 12,6 24 13 ONO 1013,9
20.06.2019 06:00:00 19,4 13,7 18 10 ONO 1013,8
20.06.2019 05:00:00 19,4 14,1 24 13 ONO 1013,6
20.06.2019 04:00:00 19,5 14,7 28 15 ONO 1013,5
20.06.2019 03:00:00 20,0 13,8 18 10 ONO 1013,7
20.06.2019 02:00:00 20,4 12,8 21 11 ONO 1013,6
20.06.2019 01:00:00 20,4 14,0 16 9 ONO 1013,6
20.06.2019 00:00:00 20,5 14,8 21 11 ONO 1013,8
19.06.2019 23:00:00 20,5 16,0 28 15 ONO 1013,9
19.06.2019 22:00:00 20,9 16,8 13 7 ONO 1013,8
19.06.2019 21:00:00 21,1 17,0 9 5 O 1013,1
19.06.2019 20:00:00 22,3 16,3 18 10 O 1012,7

tt = Temperatura
td = dewpoint
ff = velocità del vento
dd = direzione del vento
ppp = reduced air pressure

Stazioni seguenti

WeatherPro
AMSI
MeteoEarth